Regional Weather Roundup
Issued by NWS Jackson, KY

Home | Current Version | Previous Version | Text Only | Print | Product List | Glossary Off
Versions: 1 2 3 4 5 6 7 8 9 10 11 12 13 14 15 16 17 18 19 20 21 22 23 24 25 26 27

000
ASUS43 KJKL 200510
RWRJKL

EAST KENTUCKY HOURLY WEATHER ROUNDUP
NATIONAL WEATHER SERVICE JACKSON KY
100 AM EDT WED SEP 20 2017

NOTE: "FAIR" INDICATES FEW OR NO CLOUDS BELOW 12,000 FEET WITH
NO SIGNIFICANT WEATHER AND/OR OBSTRUCTIONS TO VISIBILITY.

* THESE REPORTS ARE NOT UNDER NWS QUALITY CONTROL AND MAY NOT
  REPORT WEATHER SUCH AS PRECIPITATION AND FOG.

KYZ079-080-083-085-087-088-110-112-115-119-120-200600
...EASTERN KENTUCKY...

CITY           SKY/WX    TMP DP  RH WIND       PRES   REMARKS
JACKSON        CLOUDY    68  66  93 CALM      30.01R FOG
LONDON         CLEAR     68  64  87 CALM      30.01F
SOMERSET*      PTCLDY    64  64 100 CALM      30.02S FOG
MONTICELLO*    PTCLDY    62  62 100 CALM      30.02F FOG
WILLIAMSBURG*  MOCLDY    64  64 100 CALM      30.02S
MIDDLESBORO*   CLEAR     65  65  99 CALM      30.03S
HARLAN APT*    PTCLDY    64  63  94 CALM      30.03F
PIKE CO APT*     N/A     66  66 100 SE5       30.00F
BIG SANDY APT* MOCLDY    67  67 100 W3        30.00S FOG
MOREHEAD APT*  CLOUDY    68  66  94 CALM      30.01R FOG
$$

KYZ035-036-041-042-044-050-067-078-099-200600
...CENTRAL KENTUCKY...

CITY           SKY/WX    TMP DP  RH WIND       PRES   REMARKS
MT STERLING*   CLEAR     64  64 100 CALM      30.00S FOG
FLEMING/MASON* PTCLDY    66  65  97 CALM      30.00R
DANVILLE*      MOCLDY    66  64  94 CALM      30.01S FOG
LEXINGTON      CLEAR     67  65  93 S6        29.99S
FRANKFORT      FOG       66  64  93 SW3       29.97R VSB 3/4
LOUISVILLE     CLEAR     71  68  90 SE8       29.96S
LEBANON*         N/A     68  66  94 CALM      29.99S
GLASGOW*       CLEAR    N/A N/A N/A CALM      29.98S
BOWLING GREEN  PTCLDY    68  68 100 CALM      29.97S FOG
$$

KYZ091>093-OHZ055-061-077-WVZ005-015-034-035-042-200600
...SOUTHERN OHIO/WEST VIRGINIA...

CITY           SKY/WX    TMP DP  RH WIND       PRES   REMARKS
COVINGTON      CLEAR     65  65 100 S6        29.97S
COLUMBUS       CLOUDY    70  67  90 CALM      29.97S
DAYTON         PTCLDY    64  62  93 S5        29.98F
WILMINGTON     PTCLDY    65  65 100 CALM      29.98S FOG
HUNTINGTON     MOCLDY    69  67  93 SE3       29.97F FOG
CHARLESTON     MOCLDY    67  64  90 CALM      29.99S
PINEVILLE*     CLEAR     62  61  96 MISG      30.09R
BECKLEY        CLOUDY    65  62  90 CALM      30.06F
BLUEFIELD      CLEAR     63  58  83 W5        30.09S
LOGAN CO APT*  MOCLDY    66  64  94 CALM      30.02S
$$

VAZ002-007-008-TNZ017-027-036-066-071-200600
...SOUTHWEST VIRGINIA/EAST TENNESSEE...

CITY           SKY/WX    TMP DP  RH WIND       PRES   REMARKS
WISE*          MOCLDY    64  63  94 CALM      30.08F
JONESVILLE*      N/A     66  64  94 CALM      30.05S
ABINGDON*      CLEAR     65  63  94 E5        30.06S
BRISTOL        PTCLDY    65  63  93 CALM      30.03S
MORRISTOWN*    CLOUDY    66  63  88 CALM      30.02S
SEVIERVILLE*   PTCLDY    63  61  94 CALM      30.02S
KNOXVILLE      MOCLDY    66  63  90 CALM      30.01F
LAFOLLETTE*    FOG       64  64 100 CALM      30.06S VSB 1/2
OAK RIDGE      MOCLDY    65  64  97 CALM      30.03F
CROSSVILLE     CLEAR     61  60  97 CALM      30.06R
NASHVILLE      PTCLDY    69  67  93 S3        29.98S
$$

...KEY TO REMARKS...
VSB - VISIBILITY IN MILES
WCI - WIND CHILL INDEX
HX  - HEAT INDEX

$$




USA.gov is the U.S. government's official web portal to all federal, state and local government web resources and services.